Temp
18 18 19 21 25 27 27 29 32 30 30 30 29 28 29 28 28 24 20 21 21 20 18 19 19 19 18 17 16 17 16 16 15 16 15 15 15 16 16 16 17 16 16 16 15 16 17 17 17
17 19 20 23 25 26 28 31 31 30 30 28 28 27 28 29 27 25 23 20 20 19 16 18 19 18 17 16 16 17 16 16 15 15 15 15 15 15 15 16 16 16 15 15 16 16 17 17 17
17 19 22 25 26 26 28 31 31 30 28 28 28 27 28 28 25 24 21 20 20 19 17 16 18 17 16 16 17 16 16 16 15 15 15 15 15 15 15 15 15 15 14 15 15 17 16 16 16
18 20 22 24 26 28 29 30 30 29 28 28 28 29 28 26 24 23 20 20 20 19 18 18 18 17 16 15 16 16 16 15 15 15 14 14 14 14 14 14 14 14 15 15 16 16 16 16 16
19 22 24 25 26 28 30 29 29 28 28 27 27 28 28 25 23 21 20 20 19 19 17 18 17 16 16 15 16 15 16 15 15 14 14 14 14 14 14 14 13 13 14 14 15 16 16 16 15
21 23 24 25 27 29 30 29 27 28 28 27 27 27 27 23 23 21 20 19 19 18 17 17 17 16 16 16 16 16 15 15 15 14 14 14 14 14 14 14 13 13 14 14 14 16 16 15 15
22 24 24 25 27 28 29 28 27 27 27 28 27 28 27 25 22 20 19 18 18 17 17 15 16 16 15 16 15 16 15 15 15 14 14 14 14 14 13 13 13 13 14 15 15 15 15 15 15
21 24 23 25 26 27 28 26 25 26 27 26 26 27 27 22 20 20 19 18 17 16 16 14 14 15 15 15 15 15 15 15 15 15 14 14 14 14 14 13 13 13 15 15 15 15 15 15 15
21 21 23 24 26 27 28 26 26 25 25 25 26 26 25 21 20 20 19 18 17 15 15 15 15 15 15 15 15 15 14 14 14 14 14 14 14 14 14 14 14 15 15 15 15 15 15 15 15
21 22 23 25 26 26 26 26 25 25 25 25 25 26 24 22 21 21 20 19 15 15 15 15 15 15 15 15 15 14 14 14 14 14 14 13 13 13 13 14 15 15 15 15 15 15 15 15 14
22 21 24 24 25 24 24 24 24 25 24 25 25 26 25 24 22 21 21 21 18 16 15 14 15 15 15 15 15 15 14 14 14 13 13 13 14 13 13 14 14 14 14 14 14 14 14 13 13
21 22 22 23 23 23 24 23 23 23 24 24 24 25 25 25 24 22 22 21 20 17 16 14 15 16 15 15 15 14 14 14 13 13 13 13 14 14 14 13 13 12 13 14 14 14 14 14 13
22 22 22 21 22 21 21 22 22 22 22 22 23 23 23 24 24 22 22 22 21 18 17 15 15 15 15 15 15 14 14 14 13 13 13 13 13 14 14 14 13 14 14 13 13 14 14 14 14
20 21 21 21 21 22 22 22 21 22 22 22 22 22 23 23 23 23 22 22 21 19 18 15 15 15 15 14 15 15 14 14 13 13 14 13 13 14 14 14 14 14 14 14 15 15 14 13 13
18 19 20 21 21 21 21 21 21 22 23 23 23 23 23 23 23 23 23 22 21 20 18 15 15 15 15 14 15 15 14 13 13 14 13 12 13 14 15 14 14 14 15 15 15 14 13 13 12
18 19 18 21 22 22 22 20 23 24 24 25 24 23 23 23 24 24 23 23 21 20 17 15 15 14 14 14 14 14 14 14 14 14 13 13 13 15 15 14 14 15 15 15 14 14 13 13 13
20 19 20 21 23 22 21 20 23 23 24 23 24 24 24 24 24 24 24 23 22 20 17 15 15 14 15 14 14 14 14 14 14 13 13 13 14 14 15 15 15 16 16 15 14 14 13 13 13
15 15 17 18 20 20 20 20 22 21 22 22 23 23 24 24 25 25 24 23 22 21 18 16 14 13 14 14 14 14 14 13 14 13 13 13 14 14 15 15 16 16 15 14 14 14 13 13 13
13 14 14 16 18 18 18 18 19 20 20 22 22 23 23 23 24 24 24 23 22 21 18 16 14 13 14 14 14 14 14 13 13 14 13 13 12 14 14 14 14 15 15 15 14 13 12 12 12
13 13 13 15 16 17 17 17 19 20 20 20 20 21 22 22 22 24 24 23 22 21 18 17 14 13 13 13 14 14 14 13 14 13 13 12 13 13 14 15 14 14 15 14 14 13 13 12 13
12 11 12 12 14 14 14 15 16 18 19 19 19 20 21 21 22 23 23 23 22 21 19 17 14 13 13 13 13 13 15 15 13 13 12 13 12 13 14 14 14 14 15 14 13 13 13 14 13
9 12 11 11 12 12 16 14 17 19 21 22 21 20 20 20 21 21 22 23 22 21 19 17 15 13 13 12 13 13 15 15 15 14 13 13 13 13 13 14 14 14 14 14 13 13 13 12 12
9 11 11 11 12 12 13 14 16 19 19 20 21 21 21 21 21 21 22 22 23 21 19 17 15 13 13 12 13 13 15 15 15 14 13 13 13 13 13 13 14 14 14 14 14 12 12 12 12
11 10 12 13 13 12 14 15 17 16 12 13 14 14 14 15 21 21 21 22 22 21 18 17 15 13 14 12 12 13 14 15 15 15 14 13 13 13 13 13 13 13 14 14 14 13 13 13 13
9 10 9 13 13 13 14 14 7 10 10 10 10 9 9 8 10 13 18 22 23 21 18 17 15 14 14 13 12 13 14 15 15 14 14 13 13 13 13 13 13 13 14 14 13 13 13 13 13
7 8 6 5 10 10 12 10 4 7 7 7 6 5 5 5 5 6 8 12 18 22 17 15 15 13 13 14 13 13 14 14 15 14 14 14 13 13 13 13 13 13 13 13 13 13 13 13 13
7 7 8 5 8 10 12 7 10 6 5 6 5 4 3 2 2 3 5 7 10 16 19 16 14 14 14 13 13 13 13 14 14 14 14 14 14 13 13 13 13 13 13 13 13 13 13 13 13
6 8 6 6 6 7 5 3 2 3 3 4 4 3 1 -1 -0 -0 2 3 6 11 17 17 16 14 13 13 13 13 13 13 14 15 14 14 14 14 13 13 13 13 13 13 13 13 13 13 13
6 5 6 6 5 6 6 2 0 0 1 1 1 1 -0 -1 -1 -1 -0 2 4 9 15 17 15 14 13 13 13 13 13 12 13 14 14 14 14 14 14 13 13 13 13 13 13 13 13 13 13
4 5 4 3 4 4 5 1 2 1 -0 -1 -1 -1 -1 -2 -2 -1 -1 0 3 6 13 16 15 14 15 14 13 13 13 12 12 13 14 14 14 14 14 13 13 13 13 13 13 13 13 13 13
Height
1492 1494 1496 1497 1492 1472 1461 1446 1429 1436 1441 1442 1448 1450 1445 1447 1448 1465 1466 1468 1468 1466 1463 1466 1469 1471 1473 1475 1478 1481 1484 1487 1492 1496 1501 1505 1509 1512 1515 1518 1521 1523 1526 1528 1531 1533 1534 1535 1538
1495 1497 1497 1490 1482 1471 1450 1432 1432 1440 1438 1446 1451 1451 1450 1447 1451 1460 1466 1467 1467 1466 1465 1467 1469 1471 1473 1476 1479 1482 1484 1487 1492 1497 1502 1506 1509 1514 1517 1520 1522 1523 1527 1530 1532 1534 1536 1538 1541
1492 1497 1493 1479 1470 1465 1449 1426 1425 1438 1446 1451 1449 1450 1450 1449 1456 1460 1464 1464 1466 1467 1469 1468 1470 1471 1474 1476 1479 1482 1485 1488 1492 1498 1503 1506 1510 1514 1517 1521 1523 1525 1530 1532 1534 1536 1538 1541 1544
1495 1495 1491 1476 1462 1444 1439 1435 1437 1445 1448 1449 1449 1447 1448 1453 1458 1461 1462 1463 1465 1468 1471 1469 1470 1472 1474 1475 1479 1482 1485 1489 1492 1499 1503 1506 1511 1515 1514 1521 1524 1525 1532 1534 1536 1539 1541 1544 1547
1494 1487 1476 1466 1456 1445 1438 1438 1443 1445 1447 1449 1448 1447 1449 1453 1458 1461 1462 1464 1466 1468 1470 1469 1471 1472 1474 1475 1479 1482 1486 1490 1493 1499 1504 1507 1511 1515 1518 1521 1524 1528 1532 1534 1538 1541 1544 1547 1551
1489 1482 1472 1462 1445 1435 1434 1438 1448 1447 1446 1448 1450 1450 1451 1454 1458 1460 1462 1464 1467 1469 1470 1468 1471 1472 1474 1476 1479 1482 1486 1489 1493 1500 1503 1507 1511 1515 1519 1521 1524 1529 1532 1536 1539 1543 1547 1550 1553
1486 1472 1467 1456 1447 1438 1435 1439 1447 1448 1447 1446 1447 1447 1450 1452 1456 1459 1462 1465 1467 1469 1470 1470 1471 1473 1475 1478 1480 1483 1486 1490 1495 1496 1503 1509 1513 1516 1518 1519 1523 1528 1533 1537 1541 1545 1549 1553 1556
1484 1476 1467 1455 1450 1442 1437 1445 1451 1451 1447 1447 1447 1446 1449 1453 1457 1460 1463 1465 1467 1468 1470 1469 1472 1474 1476 1479 1481 1484 1487 1491 1496 1500 1504 1511 1514 1517 1519 1523 1527 1532 1535 1539 1544 1547 1551 1555 1558
1483 1479 1464 1455 1447 1439 1437 1444 1446 1451 1451 1449 1447 1448 1450 1455 1458 1461 1463 1465 1467 1466 1467 1469 1471 1475 1477 1479 1481 1485 1488 1492 1496 1501 1506 1511 1515 1518 1521 1526 1529 1533 1537 1541 1545 1549 1553 1556 1560
1479 1467 1458 1451 1444 1442 1443 1442 1445 1449 1449 1447 1446 1445 1448 1454 1458 1459 1461 1463 1464 1464 1466 1469 1471 1474 1477 1479 1481 1484 1488 1491 1498 1503 1506 1511 1516 1520 1524 1527 1531 1535 1539 1543 1547 1551 1555 1557 1561
1470 1463 1456 1450 1447 1447 1449 1449 1448 1446 1446 1447 1444 1442 1445 1448 1454 1457 1457 1459 1463 1465 1466 1467 1471 1474 1477 1479 1481 1484 1488 1492 1490 1501 1506 1514 1519 1521 1523 1527 1533 1537 1541 1545 1549 1552 1556 1560 1562
1465 1460 1457 1453 1452 1450 1447 1447 1444 1445 1443 1445 1444 1442 1442 1443 1447 1452 1454 1455 1459 1463 1465 1465 1470 1473 1475 1479 1480 1483 1486 1490 1496 1501 1500 1514 1519 1522 1523 1527 1533 1537 1542 1545 1548 1552 1557 1560 1562
1458 1455 1453 1452 1451 1450 1450 1443 1442 1439 1443 1442 1442 1443 1442 1442 1444 1448 1449 1451 1455 1460 1463 1462 1468 1471 1473 1476 1480 1482 1485 1490 1494 1498 1503 1510 1517 1520 1526 1529 1534 1539 1543 1546 1549 1553 1555 1558 1560
1459 1454 1450 1448 1445 1442 1443 1439 1442 1426 1436 1435 1436 1437 1437 1437 1439 1442 1444 1447 1450 1455 1459 1461 1464 1467 1471 1474 1478 1481 1484 1488 1493 1496 1500 1506 1516 1518 1524 1529 1533 1538 1542 1546 1550 1553 1554 1557 1559
1461 1456 1449 1444 1440 1438 1440 1432 1427 1424 1429 1426 1426 1429 1429 1430 1433 1435 1438 1441 1445 1449 1454 1457 1462 1463 1468 1471 1475 1479 1484 1480 1489 1495 1501 1506 1512 1519 1521 1526 1531 1536 1542 1545 1548 1550 1553 1556 1558
1460 1454 1446 1431 1428 1425 1430 1419 1414 1415 1412 1410 1414 1419 1421 1421 1423 1427 1431 1435 1440 1444 1447 1452 1457 1460 1465 1469 1471 1476 1481 1483 1487 1493 1500 1507 1512 1516 1522 1526 1532 1536 1540 1543 1546 1548 1551 1555 1558
1442 1439 1431 1422 1416 1422 1423 1416 1416 1414 1410 1413 1411 1411 1413 1413 1414 1418 1423 1428 1434 1438 1443 1446 1451 1452 1460 1466 1469 1473 1477 1482 1478 1490 1492 1500 1506 1514 1521 1526 1530 1536 1539 1542 1545 1548 1551 1554 1557
1461 1456 1444 1436 1424 1421 1419 1416 1415 1418 1415 1412 1410 1409 1408 1407 1407 1410 1415 1420 1426 1432 1438 1443 1446 1449 1455 1462 1466 1468 1474 1479 1483 1486 1486 1497 1503 1509 1515 1523 1529 1533 1538 1541 1545 1546 1550 1553 1556
1469 1464 1454 1443 1437 1434 1429 1423 1419 1419 1417 1410 1407 1406 1407 1407 1406 1405 1408 1414 1419 1425 1431 1436 1438 1444 1450 1455 1461 1464 1467 1474 1480 1478 1486 1492 1501 1506 1513 1520 1524 1530 1535 1540 1542 1545 1547 1551 1553
1468 1465 1454 1443 1438 1432 1424 1418 1415 1413 1409 1410 1408 1404 1403 1404 1403 1401 1402 1407 1412 1419 1424 1429 1432 1437 1442 1446 1456 1463 1467 1470 1476 1482 1483 1490 1498 1503 1510 1518 1522 1526 1532 1537 1538 1541 1544 1548 1551
1473 1468 1456 1451 1442 1438 1433 1423 1416 1407 1405 1403 1402 1399 1400 1399 1398 1398 1398 1400 1406 1412 1418 1423 1425 1432 1437 1441 1449 1457 1466 1471 1474 1479 1480 1482 1493 1498 1506 1514 1519 1524 1529 1532 1534 1538 1541 1544 1549
1474 1467 1460 1456 1448 1436 1422 1413 1397 1388 1383 1381 1384 1389 1391 1394 1394 1394 1393 1395 1399 1406 1414 1420 1422 1426 1433 1436 1441 1450 1455 1462 1468 1472 1479 1483 1489 1494 1502 1510 1515 1520 1526 1528 1531 1535 1539 1543 1546
1473 1465 1456 1449 1437 1429 1419 1418 1398 1388 1386 1383 1382 1382 1381 1383 1386 1386 1388 1390 1392 1399 1408 1415 1418 1421 1427 1432 1437 1443 1450 1457 1464 1469 1474 1478 1485 1492 1499 1504 1510 1515 1521 1524 1527 1532 1536 1540 1544
1469 1459 1438 1418 1414 1416 1401 1400 1389 1395 1414 1403 1395 1390 1389 1386 1378 1381 1383 1384 1387 1389 1399 1409 1414 1416 1421 1428 1433 1437 1442 1451 1457 1462 1467 1472 1480 1482 1495 1500 1505 1510 1516 1521 1524 1529 1532 1535 1539
1474 1455 1433 1399 1389 1392 1392 1392 1439 1424 1425 1426 1419 1413 1406 1398 1390 1383 1380 1381 1380 1382 1389 1395 1406 1411 1414 1421 1427 1433 1437 1445 1451 1455 1461 1465 1473 1479 1484 1492 1497 1503 1510 1517 1521 1525 1528 1532 1535
1476 1465 1463 1454 1410 1407 1405 1404 1450 1440 1440 1436 1431 1425 1416 1406 1402 1396 1389 1381 1379 1380 1382 1387 1395 1403 1407 1413 1418 1426 1434 1438 1446 1448 1455 1461 1465 1470 1476 1484 1492 1498 1504 1511 1515 1520 1524 1527 1531
1472 1465 1464 1463 1437 1412 1395 1425 1413 1438 1442 1437 1434 1430 1421 1416 1411 1402 1391 1385 1378 1373 1372 1376 1385 1393 1400 1406 1413 1419 1427 1430 1438 1443 1448 1455 1462 1467 1473 1477 1484 1492 1499 1505 1510 1514 1518 1522 1525
1478 1467 1465 1459 1443 1420 1431 1455 1468 1456 1454 1450 1444 1438 1434 1425 1415 1406 1394 1386 1379 1370 1368 1365 1376 1384 1392 1401 1405 1411 1418 1426 1433 1438 1440 1448 1456 1463 1468 1472 1478 1485 1493 1498 1504 1508 1513 1516 1519
1474 1471 1469 1466 1459 1440 1426 1468 1488 1479 1473 1467 1461 1452 1448 1439 1429 1417 1405 1391 1380 1370 1361 1363 1368 1377 1385 1390 1398 1403 1410 1419 1429 1433 1435 1442 1449 1456 1462 1467 1472 1479 1485 1491 1497 1502 1506 1510 1513
1485 1477 1477 1475 1458 1454 1448 1482 1486 1485 1480 1477 1468 1460 1452 1443 1431 1420 1408 1392 1377 1367 1359 1358 1361 1367 1373 1384 1390 1394 1400 1410 1418 1425 1430 1437 1443 1449 1457 1462 1467 1472 1478 1484 1489 1494 1500 1504 1506
Wind_Speed
7 6 3 10 8 9 20 21 17 10 8 2 6 8 10 14 12 5 7 1 8 11 11 15 13 11 10 13 15 17 21 24 23 23 24 25 25 26 28 26 23 27 15 18 19 17 17 21 21
4 6 10 15 10 15 18 18 12 9 3 2 7 9 12 11 5 8 7 5 8 11 11 13 12 11 12 14 15 18 22 25 23 24 25 26 26 26 27 24 22 19 18 19 20 18 21 23 22
10 10 14 9 15 19 19 21 4 9 2 12 10 6 10 4 3 4 4 7 10 11 11 13 12 12 13 14 16 20 24 24 27 24 26 26 28 28 26 22 21 20 22 18 20 21 23 24 24
7 9 13 12 22 20 19 15 9 7 14 14 13 10 5 2 1 0 3 7 12 13 11 10 12 12 12 13 18 22 24 24 27 25 27 28 27 27 27 28 19 25 24 22 20 22 23 25 24
11 14 13 17 22 22 19 7 17 10 12 8 9 12 11 5 4 1 2 8 14 14 11 11 12 12 12 15 19 23 25 26 26 25 28 27 26 26 22 24 28 26 24 23 20 22 24 26 27
16 14 14 16 20 20 15 7 14 19 17 14 13 15 13 3 1 2 5 12 14 14 11 12 12 12 13 15 18 25 27 29 29 25 28 27 23 18 19 25 30 26 21 20 24 25 26 28 28
17 14 17 20 21 19 13 6 9 15 16 18 20 15 14 6 4 5 9 13 15 13 12 11 13 14 13 14 20 25 26 26 27 26 24 25 21 18 18 27 30 24 22 27 28 28 28 27 27
20 13 23 21 19 21 11 8 8 15 14 14 17 10 10 11 6 6 10 13 14 13 14 14 13 13 13 17 21 24 24 27 27 26 25 24 21 18 15 29 28 26 29 29 29 29 28 27 26
15 13 17 23 23 20 16 6 8 6 13 13 14 16 8 4 4 6 12 14 15 15 16 17 16 16 14 19 23 24 24 25 29 28 28 25 22 20 30 26 27 30 30 31 30 28 27 26 25
16 14 23 21 22 17 22 19 16 13 17 15 18 20 11 6 8 9 13 17 16 16 18 17 18 19 16 20 23 24 24 31 31 30 29 27 23 23 24 25 29 31 30 29 28 27 25 24 24
22 21 22 26 25 20 19 22 24 20 18 22 21 15 17 14 13 14 15 18 16 18 18 20 18 19 19 19 25 27 30 34 33 31 29 24 24 27 25 31 33 32 31 29 26 25 23 17 16
21 28 27 29 27 25 22 26 25 25 25 25 25 23 17 17 12 16 16 18 18 19 21 22 19 19 21 20 26 28 33 35 35 34 30 27 25 25 27 31 32 29 25 25 25 24 19 17 19
21 23 28 30 31 24 27 28 28 33 29 29 26 27 27 23 21 20 18 17 21 22 24 23 24 22 23 23 28 31 34 35 36 38 33 29 27 29 28 30 29 27 24 22 20 19 20 20 17
25 26 27 29 28 27 23 26 28 41 26 25 26 31 31 28 27 24 23 20 23 24 26 23 26 27 23 25 29 29 34 35 37 36 29 29 22 35 35 31 29 26 23 24 18 19 18 18 18
19 22 22 24 26 25 27 29 31 40 32 31 29 24 25 30 31 29 26 24 25 27 28 27 27 28 28 25 28 29 29 36 35 34 32 32 29 37 40 34 35 29 26 22 21 21 23 22 19
21 23 23 23 24 27 24 31 27 28 22 20 30 31 28 30 29 31 29 27 26 28 31 29 30 31 29 27 30 30 28 31 34 36 34 32 30 31 30 31 25 27 21 22 24 23 23 20 21
18 20 24 24 17 12 16 26 20 22 16 13 19 20 24 25 29 29 29 30 29 30 31 32 34 34 33 29 26 30 27 33 35 40 38 40 39 35 31 29 26 26 26 23 20 22 22 23 21
20 24 26 25 21 24 21 23 20 25 28 27 20 21 19 22 24 25 28 30 31 31 32 33 36 31 35 32 28 26 34 33 30 35 37 40 38 39 35 30 28 29 23 22 18 20 21 22 21
17 20 26 26 24 24 26 27 26 27 32 27 27 29 25 26 22 23 24 28 32 32 34 36 39 38 37 38 31 27 30 36 37 35 35 42 33 34 32 30 30 32 27 23 24 22 22 21 24
16 21 24 24 23 21 23 25 24 24 26 32 34 33 28 29 31 26 25 28 34 35 35 38 42 43 43 43 36 31 23 34 37 36 35 38 32 34 34 31 29 31 26 26 27 27 27 26 22
16 21 20 22 24 22 23 27 28 28 32 37 36 34 35 35 32 32 29 27 31 37 37 39 42 42 45 45 40 30 23 27 30 35 31 35 36 35 36 30 31 30 27 29 30 31 29 26 22
19 22 21 23 20 19 20 18 21 19 18 20 27 35 37 37 35 36 33 31 32 35 35 37 41 42 44 48 43 34 35 33 33 38 35 38 40 37 36 33 32 33 28 29 29 28 24 20 21
24 21 22 27 26 21 24 13 17 19 21 20 21 27 27 28 34 35 35 35 32 33 34 37 41 44 44 46 40 39 37 35 33 32 38 39 40 35 36 35 34 34 32 29 29 28 27 24 19
18 25 28 29 22 17 25 19 17 10 27 27 30 41 43 44 23 29 33 33 35 33 35 37 39 42 44 47 42 42 41 38 36 36 36 42 42 41 39 36 37 35 36 29 29 30 29 26 21
20 18 12 12 10 9 8 6 17 24 25 26 26 37 39 39 42 39 28 29 30 33 37 42 46 45 46 43 48 42 44 42 40 40 40 41 43 46 43 41 40 41 39 33 31 29 28 28 24
23 10 6 9 13 17 14 5 8 26 31 33 36 38 40 41 42 41 38 30 26 29 36 38 46 48 45 44 46 45 44 44 41 43 43 41 43 48 47 45 39 39 39 37 34 32 31 27 27
11 11 15 16 22 17 7 14 8 31 31 35 40 42 45 45 43 43 42 36 34 32 37 43 41 50 54 45 48 51 47 47 45 42 44 43 43 41 44 48 45 42 38 38 37 36 32 29 27
13 12 9 6 6 7 7 9 13 29 29 30 31 41 46 47 48 48 42 39 36 32 26 42 42 45 50 51 47 51 49 46 46 42 46 44 42 40 42 46 48 44 40 37 38 34 33 31 29
11 8 8 10 8 5 6 8 15 22 24 27 27 38 41 43 41 43 42 36 30 30 24 36 40 42 45 49 50 49 53 46 43 44 45 43 43 43 40 43 47 44 44 41 39 38 36 34 30
16 7 10 7 11 11 7 6 20 22 22 32 35 36 40 43 43 42 40 35 29 25 17 22 36 38 38 47 47 47 44 51 44 43 40 43 40 41 42 42 40 44 42 42 41 40 38 33 32
Wind_Direction
200 201 226 240 245 231 254 258 255 280 228 209 326 287 322 344 324 56 229 196 126 153 169 171 179 176 178 171 172 174 172 172 173 176 175 175 173 165 159 155 153 152 154 151 141 146 136 131 130
172 230 228 260 239 253 251 243 253 239 345 4 276 262 266 277 26 107 176 150 143 157 162 172 177 177 180 175 176 174 172 170 171 175 176 177 174 163 161 160 163 173 151 146 145 145 139 132 130
163 211 257 230 237 249 266 273 219 243 243 271 269 233 290 332 72 54 114 129 147 153 154 186 179 182 182 183 182 176 176 171 168 177 177 178 172 166 168 165 173 162 160 155 148 144 135 133 128
187 214 250 260 255 253 257 292 334 306 278 254 261 266 232 246 336 357 126 139 157 153 158 198 183 183 188 186 184 178 178 172 175 178 178 178 170 166 174 173 165 155 154 145 141 141 137 133 128
225 252 245 251 253 262 270 233 280 260 274 297 245 260 286 143 143 113 165 156 158 155 173 200 182 182 186 186 181 178 175 176 178 180 183 179 173 179 190 200 177 170 165 157 140 141 139 133 126
233 246 248 255 256 255 251 270 274 273 258 245 257 263 266 94 128 146 168 158 158 159 163 180 178 177 179 177 175 176 175 179 181 181 188 179 182 184 184 184 169 172 181 191 149 146 140 134 128
249 253 250 271 279 282 291 258 249 273 267 263 249 258 262 247 162 136 156 160 160 159 156 165 171 175 171 169 171 175 176 179 179 181 193 180 182 178 189 197 171 160 162 155 149 145 140 136 128
252 260 269 267 266 268 290 351 281 279 275 272 261 264 255 73 102 137 160 163 162 160 172 171 172 163 167 166 171 172 175 178 175 179 177 171 173 174 163 149 154 159 153 148 147 144 141 138 131
244 259 255 258 264 274 273 256 262 268 278 277 263 243 268 118 132 158 172 173 173 178 174 176 169 163 176 171 172 170 176 175 179 166 168 164 167 159 157 147 157 151 150 149 146 145 144 141 133
235 246 250 267 286 299 303 297 289 284 273 262 256 249 222 233 224 210 201 191 191 182 178 176 174 170 182 175 171 172 178 164 166 168 167 152 159 157 156 162 156 150 149 148 149 151 147 146 141
236 246 270 283 287 293 279 281 279 272 256 259 268 260 245 222 227 228 218 209 206 195 189 178 184 178 178 179 175 178 172 170 171 174 158 156 156 155 170 160 156 153 151 151 154 156 151 155 156
251 257 264 278 280 282 274 277 276 274 270 270 272 272 268 261 240 230 223 216 205 200 196 185 182 184 178 183 176 180 177 178 175 171 154 167 161 161 166 157 157 157 156 162 162 159 162 164 170
263 271 270 270 275 264 273 269 272 269 266 265 262 261 260 256 250 233 227 219 208 203 199 192 184 185 181 186 177 182 180 179 173 164 163 160 167 160 161 159 163 164 163 171 171 172 179 173 170
283 284 286 281 274 265 260 267 271 265 258 255 254 254 252 248 244 233 228 225 210 205 203 196 191 186 187 184 188 188 183 182 180 178 179 160 181 169 158 164 172 167 166 160 174 182 169 169 180
293 281 274 267 264 260 261 263 253 264 262 255 251 246 250 246 242 237 232 221 215 208 203 198 196 194 187 191 192 188 186 188 186 180 176 172 175 172 170 175 175 168 170 167 174 180 181 182 177
278 274 272 270 260 245 238 255 258 265 251 253 236 242 251 250 240 235 231 226 217 208 202 200 195 193 191 191 194 192 190 187 189 180 178 173 173 175 184 172 180 168 166 174 179 187 183 177 170
275 265 274 276 279 228 241 259 269 279 292 263 261 255 244 247 240 234 228 223 217 210 202 200 194 200 186 198 193 191 186 187 187 183 187 181 172 171 175 175 179 178 182 184 186 195 180 181 186
318 305 301 295 299 313 294 270 272 279 278 266 265 260 254 251 247 233 227 222 214 209 204 202 199 200 189 197 196 201 201 196 193 200 199 187 183 176 169 178 182 177 182 183 178 186 180 186 181
300 289 285 285 287 280 273 276 274 275 272 274 265 256 252 259 258 246 228 220 213 208 202 202 203 195 190 190 192 198 206 203 195 202 195 191 185 182 169 181 186 178 183 185 194 193 180 180 192
297 304 296 303 293 284 276 273 274 262 259 259 261 265 255 256 256 250 234 219 214 209 204 202 209 201 191 194 191 194 193 196 197 199 197 185 185 178 175 186 191 176 186 183 195 192 175 195 199
309 303 301 309 316 301 287 275 266 262 259 263 263 258 257 257 257 252 240 224 218 211 208 204 208 209 199 198 194 192 189 192 193 188 188 196 187 188 184 187 190 185 189 192 202 192 199 197 193
310 317 299 292 286 277 282 288 286 287 274 243 236 240 247 252 252 251 250 234 220 216 211 208 204 209 204 203 199 196 191 195 195 196 188 191 188 191 190 190 186 191 189 199 204 200 196 195 195
302 312 293 279 273 270 266 252 262 250 252 258 258 259 260 253 248 249 244 242 233 214 209 208 204 211 214 205 199 193 196 199 198 195 195 190 187 194 194 195 188 196 189 207 213 199 196 205 204
309 305 295 263 248 244 251 247 252 359 15 3 359 0 357 355 280 250 251 248 236 209 200 213 204 207 215 209 200 199 195 198 196 194 194 197 192 194 199 198 197 196 191 201 215 204 208 207 207
337 330 320 294 202 227 355 270 35 20 17 9 359 350 348 351 348 348 329 253 244 209 198 208 212 204 212 215 202 202 199 198 197 194 193 193 192 194 196 199 202 199 201 198 206 211 211 212 212
301 323 317 308 316 307 288 339 38 19 9 11 2 355 351 348 342 335 330 319 308 233 199 200 211 206 205 212 206 200 202 199 197 198 195 196 195 199 199 198 203 206 207 202 209 210 214 218 219
325 304 312 268 269 271 323 42 53 10 7 4 5 2 356 350 340 332 325 319 312 300 203 200 203 214 211 206 207 204 204 200 198 200 197 197 199 201 198 202 202 207 207 211 209 214 217 216 226
283 302 324 313 285 307 79 57 3 1 2 360 3 3 357 348 344 338 328 319 311 303 282 203 213 212 211 208 205 208 203 204 201 202 198 200 201 201 202 204 205 208 208 211 211 218 216 222 226
319 328 323 294 253 291 323 65 12 6 7 1 352 359 356 346 339 337 332 325 315 309 276 209 207 212 212 211 209 212 212 204 206 203 205 201 203 201 203 203 208 206 210 211 215 216 221 224 227
347 344 341 317 303 314 290 82 21 13 4 3 356 354 358 347 341 340 337 344 348 327 287 264 203 215 219 217 209 209 213 210 207 206 205 205 203 203 202 203 206 209 209 212 216 219 220 223 229